[[{"header":{"parameterUnit":"m.s-1","parameterCategory":1,"la1":30.2991,"la2":30.254,"lo1":-89.0895,"lo2":-89.0444,"dy":0.0017,"dx":0.0017,"nx":28,"ny":28,"refTime":"2026-02-02T09:00:00:Z","depth":0,"parameterNumber":2,"parameterNumberName":"U-component_of_WINDS"},"data":[0,0,0,0,0,0,0,0,0,0,0,0,0,0,0,0,0,0,0,0,0,0,0,0,0,0,0,0,0,0,0,0,0,0,0,0,0,0,0,0,0,0,0,0,0,0,0,0,0,0,0,0,0,0,0,0,0,0,2.977,2.9771,0,2.9788,2.9788,2.9788,2.9688,2.9685,2.9682,2.9679,2.9696,2.9699,2.9702,0,0,0,0,0,0,0,0,0,0,0,0,0,2.965,2.9652,2.977,2.9771,2.9771,2.9788,2.9788,2.9788,2.9688,2.9685,2.9681,2.9678,2.9695,2.9699,2.9702,0,0,0,0,0,0,0,0,0,0,0,0,0,2.9688,2.9653,2.977,2.9723,2.9719,2.9788,2.9788,2.9788,2.9689,2.9685,2.968,2.9676,2.9694,2.9698,2.9703,2.9818,0,0,2.9717,2.9719,0,0,0,0,0,0,0,0,2.9686,2.9693,2.973,2.9726,2.9722,2.9731,2.9751,2.9798,2.969,2.97,2.9679,2.9674,2.9711,2.9714,2.9727,2.9819,2.9819,2.9718,2.9721,2.9723,2.9724,0,0,0,0,0,0,0,2.9684,2.9691,2.9777,2.973,2.9726,2.9701,2.9701,2.976,2.973,2.9699,2.9692,2.9695,2.9708,2.9723,2.9726,2.982,2.9718,2.9722,2.9725,2.9726,3.0007,3.0012,0,0,0,0,0,0,2.9687,2.969,2.9777,2.9778,2.9693,2.9706,2.9707,2.9733,2.9729,2.9724,2.9699,2.9691,2.9717,2.9721,2.9727,2.9861,2.9722,2.9727,2.973,3.0003,3.0008,3.0013,0,0,0,0,0,0,2.9685,2.9696,2.9776,2.9732,2.974,2.9713,2.9742,2.9735,2.9749,2.9729,2.9723,2.9719,2.9713,2.972,2.9796,2.9861,2.9729,2.9733,2.9997,3.0004,3.0011,3.0132,0,0,0,0,0,0,2.9682,2.9696,2.9739,2.9734,2.9743,2.9846,2.9746,2.9739,2.9758,2.9747,2.9746,2.9742,2.9711,2.979,2.9801,2.9865,2.9737,2.9991,3.0,3.0009,3.0122,3.0142,3.016,0,0,0,0,0,2.9678,2.9772,2.9742,2.9753,2.9797,2.985,2.9855,2.9817,2.9763,2.9807,2.9794,2.9742,2.9852,2.9798,2.981,2.9876,2.9987,2.9998,3.0008,3.0114,3.0138,3.0159,0,0,0,0,0,0,2.9785,2.9771,2.9737,2.9832,2.9843,2.9833,2.9886,2.9844,2.987,2.9859,2.9811,2.9812,2.9896,2.9894,2.9834,2.9988,2.991,2.9923,2.9986,3.001,3.0028,3.0027,2.9741,0,0,0,0,0,2.982,2.9865,2.9849,2.9935,2.9942,2.9914,2.9935,2.9906,2.9915,2.9919,2.9911,2.9922,2.9958,2.9984,3.0016,3.0121,3.012,3.0173,3.0191,3.0207,3.0219,3.0275,3.0298,3.0048,3.0048,3.0048,0,0,2.9893,2.989,2.9921,2.9956,2.9961,3.0008,2.9918,2.9971,3.0006,2.9926,2.9998,2.9993,3.0002,3.0093,3.0133,3.0094,3.0288,3.022,3.0233,3.0236,3.0288,3.0312,3.0333,3.0055,3.0054,3.0053,0,0,3.0048,3.0051,3.0123,3.013,3.0139,3.0119,3.0137,3.0133,3.0127,3.0198,3.014,3.018,3.0245,3.0254,3.0267,3.0428,3.0381,3.044,3.0537,3.0593,3.0612,3.063,3.0688,3.0709,3.0452,3.0452,3.0452,0,3.0137,3.0206,3.0165,3.0223,3.024,3.0171,3.0244,3.0253,3.0272,3.0286,3.0241,3.0322,3.0322,3.0415,3.0455,3.0467,3.0486,3.044,3.0613,3.063,3.0645,3.07,3.0722,3.0459,3.0458,3.0458,3.0457,0,3.0315,3.0364,3.0421,3.0442,3.0466,3.0531,3.05,3.0529,3.0497,3.0483,3.0557,3.0556,3.0588,3.0607,3.0577,3.0696,3.0672,3.0621,3.0542,3.0677,3.0728,3.0749,3.0469,3.0467,3.0465,3.0463,0,0,3.0538,3.0537,3.0558,3.0568,3.0573,3.061,3.0672,3.0704,3.073,3.0746,3.0797,3.0854,3.0808,3.0823,3.0792,3.0841,3.097,3.0784,3.0784,3.0819,3.1102,3.1141,3.1166,3.0939,3.0943,3.0946,3.1102,0,3.0691,3.0798,3.0763,3.0871,3.0916,3.0852,3.0906,3.0915,3.0903,3.094,3.0926,3.0968,3.0903,3.0912,3.0957,3.0945,3.1026,3.0933,3.0986,3.0989,3.0987,3.1192,3.1233,3.138,3.1121,3.1125,3.1127,0,3.0884,3.0908,3.1021,3.102,3.1038,3.1087,3.1114,3.115,3.1159,3.1147,3.1165,3.1125,3.1186,3.1107,3.119,3.1128,3.1148,3.1145,3.115,3.1154,3.1066,3.1202,3.1426,3.1449,3.1158,3.1155,3.1153,0,3.1037,3.1098,3.1173,3.1183,3.1183,3.122,3.1222,3.1227,3.1249,3.1272,3.1286,3.1316,3.1333,3.1357,3.1326,3.1271,3.1415,3.1333,3.1407,3.1408,3.144,3.1439,3.1671,3.1452,3.1452,3.1452,3.1451,0,3.1211,3.1283,3.1242,3.1289,3.1368,3.1327,3.1406,3.14,3.1406,3.145,3.1396,3.1439,3.1395,3.1434,3.1411,3.1484,3.1492,3.1484,3.1477,3.1489,3.1491,3.1502,3.1491,3.1458,3.1456,3.1455,3.1454,0,3.1395,3.1371,3.1449,3.1443,3.1444,3.1502,3.1497,3.154,3.1525,3.1582,3.1593,3.1569,3.1612,3.1584,3.1627,3.1611,3.1708,3.1686,3.1705,3.1699,3.1775,3.1769,3.2024,3.2055,3.1816,3.1818,3.182,0,3.1509,3.1562,3.1563,3.1589,3.1595,3.1638,3.166,3.1622,3.1647,3.1663,3.1705,3.1743,3.1772,3.1844,3.183,3.1863,3.1843,3.193,3.1847,3.1858,3.1845,3.1842,3.1848,3.1947,3.1949,3.1952,3.1954,0,3.1713,3.1698,3.1733,3.1764,3.1792,3.1814,3.1832,3.1856,3.1818,3.185,3.1894,3.1916,3.1961,3.2,3.2028,3.2029,3.1986,3.198,3.1999,3.2012,3.2021,3.2018,3.1751,3.1974,3.1972,3.197,3.1969,3.1969,3.1865,3.1911,3.1919,3.1959,3.1969,3.1987,3.2027,3.2018,3.2054,3.2088,3.2063,3.2116,3.2124,3.2157,3.2164,3.2205,3.2169,3.2197,3.2204,3.2211,3.2222,3.2015,3.2209,3.2209,3.2208,3.2208,3.2207,0,3.2067,3.207,3.2107,3.2134,3.2167,3.2123,3.2141,3.217,3.2217,3.2229,3.2259,3.231,3.2349,3.2339,3.2373,3.2407,3.2388,3.2418,3.2415,3.2416,3.2251,3.2232,3.2433,3.2433,3.2432,3.2432,3.2432,3.2432,3.2176,3.2251,3.2238,3.2317,3.2318,3.237,3.2384,3.2401,3.241,3.247,3.2502,3.2495,3.2498,3.2533,3.2566,3.2562,3.2577,3.2614,3.2604,3.245,3.2428,3.2406,3.2388,3.2618,3.2618,3.2765,3.2766,3.2767]},{"header":{"parameterUnit":"m.s-1","parameterCategory":1,"la1":30.2991,"la2":30.254,"lo1":-89.0895,"lo2":-89.0444,"dy":0.0017,"dx":0.0017,"nx":28,"ny":28,"refTime":"2026-02-02T09:00:00:Z","depth":0,"parameterNumber":3,"parameterNumberName":"V-component_of_WINDS"},"data":[0,0,0,0,0,0,0,0,0,0,0,0,0,0,0,0,0,0,0,0,0,0,0,0,0,0,0,0,0,0,0,0,0,0,0,0,0,0,0,0,0,0,0,0,0,0,0,0,0,0,0,0,0,0,0,0,0,0,-1.6662,-1.6662,0,-1.6737,-1.6738,-1.6738,-1.6739,-1.6738,-1.6737,-1.6736,-1.6813,-1.6816,-1.6819,0,0,0,0,0,0,0,0,0,0,0,0,0,-1.6519,-1.6521,-1.6662,-1.6662,-1.6663,-1.6737,-1.6738,-1.6739,-1.6739,-1.6738,-1.6736,-1.6735,-1.6812,-1.6815,-1.6819,0,0,0,0,0,0,0,0,0,0,0,0,0,-1.6586,-1.6522,-1.6661,-1.6672,-1.6674,-1.6736,-1.6738,-1.6739,-1.6739,-1.6738,-1.6736,-1.6735,-1.6811,-1.6815,-1.682,-1.6876,0,0,-1.6833,-1.6835,0,0,0,0,0,0,0,0,-1.6582,-1.6591,-1.667,-1.6672,-1.6674,-1.6727,-1.6716,-1.6785,-1.6739,-1.6714,-1.6736,-1.6734,-1.6786,-1.6792,-1.6809,-1.688,-1.6883,-1.6833,-1.6836,-1.6838,-1.6839,0,0,0,0,0,0,0,-1.6577,-1.6588,-1.6691,-1.6671,-1.6673,-1.6674,-1.6682,-1.6729,-1.6757,-1.6716,-1.6717,-1.6726,-1.6786,-1.6805,-1.6811,-1.6884,-1.6833,-1.6837,-1.684,-1.6842,-1.7005,-1.7006,0,0,0,0,0,0,-1.657,-1.6584,-1.6689,-1.6694,-1.6623,-1.6677,-1.6686,-1.6711,-1.6757,-1.6762,-1.6727,-1.6725,-1.6798,-1.6806,-1.6814,-1.6883,-1.6838,-1.6842,-1.6845,-1.7003,-1.7005,-1.7007,0,0,0,0,0,0,-1.6567,-1.658,-1.6686,-1.6639,-1.6652,-1.6681,-1.6709,-1.6714,-1.6732,-1.6764,-1.677,-1.6741,-1.6797,-1.6808,-1.686,-1.6885,-1.6844,-1.6848,-1.7001,-1.7003,-1.7006,-1.7021,0,0,0,0,0,0,-1.6563,-1.6579,-1.66,-1.6639,-1.6655,-1.6731,-1.6711,-1.6716,-1.674,-1.6739,-1.6779,-1.6784,-1.6797,-1.6854,-1.6865,-1.6891,-1.6852,-1.6999,-1.7002,-1.7005,-1.7018,-1.7024,-1.7028,0,0,0,0,0,-1.6558,-1.6602,-1.6601,-1.6614,-1.6683,-1.6733,-1.6742,-1.6756,-1.6742,-1.6764,-1.6785,-1.6783,-1.6881,-1.6859,-1.6872,-1.6899,-1.6997,-1.7001,-1.7005,-1.7016,-1.7023,-1.7028,0,0,0,0,0,0,-1.6565,-1.6607,-1.6607,-1.6665,-1.6695,-1.6733,-1.6761,-1.6762,-1.6797,-1.6794,-1.681,-1.6819,-1.6872,-1.6891,-1.6866,-1.6956,-1.6937,-1.6944,-1.6942,-1.6948,-1.6953,-1.6947,-1.6855,0,0,0,0,0,-1.6573,-1.661,-1.6645,-1.6692,-1.6708,-1.6732,-1.6754,-1.6762,-1.6794,-1.6807,-1.6832,-1.6863,-1.6901,-1.6926,-1.6963,-1.7021,-1.703,-1.7046,-1.7051,-1.7055,-1.706,-1.7093,-1.71,-1.7019,-1.7019,-1.7019,0,0,-1.659,-1.6618,-1.664,-1.6694,-1.6719,-1.6757,-1.6742,-1.6783,-1.6812,-1.6814,-1.6865,-1.6884,-1.692,-1.6976,-1.7002,-1.6994,-1.7085,-1.706,-1.7063,-1.7066,-1.7097,-1.7105,-1.7112,-1.7021,-1.7021,-1.7021,0,0,-1.6641,-1.6666,-1.6708,-1.6733,-1.677,-1.6786,-1.6796,-1.6833,-1.6846,-1.6898,-1.69,-1.6934,-1.6999,-1.7025,-1.7047,-1.7107,-1.7107,-1.7119,-1.7144,-1.7176,-1.7182,-1.7188,-1.7209,-1.7217,-1.7124,-1.7124,-1.7124,0,-1.6658,-1.6715,-1.6729,-1.677,-1.6794,-1.6797,-1.684,-1.6864,-1.6911,-1.6927,-1.6917,-1.6999,-1.7024,-1.7085,-1.71,-1.7118,-1.713,-1.7114,-1.718,-1.7186,-1.7192,-1.7212,-1.722,-1.7125,-1.7125,-1.7125,-1.7125,0,-1.6733,-1.6773,-1.6803,-1.6848,-1.6875,-1.6917,-1.6938,-1.6964,-1.6969,-1.6986,-1.7039,-1.7069,-1.7112,-1.7127,-1.7133,-1.719,-1.7184,-1.7177,-1.7158,-1.72,-1.722,-1.7228,-1.7127,-1.7127,-1.7126,-1.7126,0,0,-1.679,-1.6843,-1.6854,-1.6874,-1.6916,-1.6947,-1.6989,-1.7031,-1.7052,-1.7085,-1.7121,-1.7176,-1.717,-1.7194,-1.7203,-1.7231,-1.7277,-1.7221,-1.7222,-1.723,-1.7341,-1.7346,-1.7355,-1.7277,-1.7279,-1.728,-1.7338,0,-1.6845,-1.6919,-1.6933,-1.6998,-1.7035,-1.7039,-1.7075,-1.7105,-1.7122,-1.7156,-1.7174,-1.7213,-1.7202,-1.7217,-1.7245,-1.7265,-1.7299,-1.7262,-1.731,-1.7312,-1.73,-1.7365,-1.737,-1.7423,-1.7346,-1.7347,-1.7348,0,-1.6918,-1.6953,-1.7021,-1.7058,-1.7074,-1.7106,-1.7146,-1.7178,-1.7212,-1.7222,-1.725,-1.7256,-1.73,-1.728,-1.734,-1.7314,-1.7335,-1.7348,-1.7351,-1.7355,-1.7332,-1.7371,-1.744,-1.7448,-1.736,-1.7359,-1.7358,0,-1.6952,-1.7016,-1.7065,-1.7083,-1.7127,-1.7149,-1.7169,-1.7201,-1.7225,-1.726,-1.7276,-1.7315,-1.7337,-1.7367,-1.7384,-1.7367,-1.7443,-1.7424,-1.7453,-1.7452,-1.7468,-1.7467,-1.7542,-1.7482,-1.7482,-1.7482,-1.7482,0,-1.7012,-1.7053,-1.7081,-1.7111,-1.7157,-1.7173,-1.7219,-1.7238,-1.7267,-1.7301,-1.7307,-1.7339,-1.7359,-1.7394,-1.7408,-1.7456,-1.7465,-1.7475,-1.7478,-1.7474,-1.7473,-1.7488,-1.7484,-1.7484,-1.7484,-1.7483,-1.7483,0,-1.7057,-1.7077,-1.7131,-1.7168,-1.7179,-1.7211,-1.7243,-1.7273,-1.729,-1.7333,-1.7344,-1.7371,-1.7412,-1.7432,-1.7483,-1.7492,-1.7547,-1.7548,-1.7535,-1.7536,-1.7564,-1.7561,-1.765,-1.7663,-1.7595,-1.7596,-1.7597,0,-1.7093,-1.7125,-1.7166,-1.7189,-1.7209,-1.7247,-1.7271,-1.7288,-1.7314,-1.7355,-1.7379,-1.7421,-1.7455,-1.7521,-1.7545,-1.7584,-1.7586,-1.7615,-1.7592,-1.7587,-1.7586,-1.7584,-1.7587,-1.7618,-1.7619,-1.762,-1.762,0,-1.7156,-1.7164,-1.7199,-1.7238,-1.7268,-1.7299,-1.733,-1.7349,-1.7371,-1.7399,-1.7441,-1.7468,-1.752,-1.7561,-1.7602,-1.7623,-1.7625,-1.7627,-1.7636,-1.7632,-1.7623,-1.7628,-1.7546,-1.7625,-1.7624,-1.7624,-1.7624,-1.7624,-1.7198,-1.7226,-1.7259,-1.7298,-1.7323,-1.7352,-1.7382,-1.7403,-1.7438,-1.7482,-1.749,-1.7535,-1.7568,-1.7623,-1.7645,-1.768,-1.7674,-1.7686,-1.769,-1.7692,-1.7694,-1.7618,-1.7688,-1.7688,-1.7688,-1.7688,-1.7688,0,-1.726,-1.7281,-1.7317,-1.736,-1.7391,-1.7391,-1.7425,-1.7451,-1.749,-1.7521,-1.7554,-1.7603,-1.7643,-1.767,-1.7711,-1.7734,-1.7736,-1.7744,-1.7742,-1.7747,-1.7697,-1.7685,-1.7742,-1.7742,-1.7742,-1.7742,-1.7742,-1.7742,-1.7296,-1.7344,-1.7356,-1.7417,-1.7439,-1.7482,-1.7502,-1.7529,-1.7553,-1.7607,-1.764,-1.7658,-1.7687,-1.773,-1.7767,-1.7774,-1.7789,-1.7797,-1.7803,-1.7756,-1.7751,-1.7745,-1.7734,-1.78,-1.78,-1.785,-1.7851,-1.7851]}]]